StationName;Long;Lat;ModuleName;ModuleType;;
Theertha;79.878238;6.91338;In__Station;Indoor;;
;;;;;;
Timestamp;Timezone : Asia/Colombo;Temperature;Humidity;CO2;Noise;Pressure
1476799321;2016/10/18 19:32:01;33.5;83;;;1011.5
1476799330;2016/10/18 19:32:10;33.5;83;1412;;1011.5
1476799356;2016/10/18 19:32:36;33.5;82;1342;;1009.9
1476799496;2016/10/18 19:34:56;33.1;82;924;47;1009.9
1476799646;2016/10/18 19:37:26;32.6;82;815;48;1009.9
1476799905;2016/10/18 19:41:45;32.5;82;692;;1010
1476800208;2016/10/18 19:46:48;31.8;83;668;50;1010.1
1476800512;2016/10/18 19:51:52;31.2;84;639;48;1010.1
1476800814;2016/10/18 19:56:54;30.8;85;641;50;1010.2
1476800816;2016/10/18 19:56:56;30.8;85;;;1010.2
1476800888;2016/10/18 19:58:08;30.8;86;647;;1010.2
1476800981;2016/10/18 19:59:41;31.8;84;;;1010.2
1476801225;2016/10/18 20:03:45;31.9;84;;;1010.2
1476801527;2016/10/18 20:08:47;31.6;83;659;48;1010.3
1476801829;2016/10/18 20:13:49;31;85;645;43;1010.4
1476802130;2016/10/18 20:18:50;30.7;85;622;40;1010.5
1476802433;2016/10/18 20:23:53;30.4;86;584;37;1010.6
1476802734;2016/10/18 20:28:54;30.2;86;561;39;1010.7
1476803036;2016/10/18 20:33:56;30;86;549;38;1010.8
1476803337;2016/10/18 20:38:57;29.9;86;526;37;1010.9
1476803639;2016/10/18 20:43:59;29.8;86;518;39;1010.9
1476803941;2016/10/18 20:49:01;29.8;87;515;38;1011
1476804086;2016/10/18 20:51:26;29.7;87;515;39;1011
1476804387;2016/10/18 20:56:27;29.7;87;512;39;1011.2
1476804689;2016/10/18 21:01:29;29.7;87;513;48;1011.2
1476804991;2016/10/18 21:06:31;29.6;87;512;44;1011.3
1476805292;2016/10/18 21:11:32;29.6;87;523;45;1011.3
1476805595;2016/10/18 21:16:35;29.6;87;521;47;1011.4
1476805898;2016/10/18 21:21:38;29.6;87;520;47;1011.5
1476806199;2016/10/18 21:26:39;29.6;87;516;46;1011.5
1476806501;2016/10/18 21:31:41;29.6;87;517;43;1011.4
1476806803;2016/10/18 21:36:43;29.6;87;529;45;1011.4
1476807106;2016/10/18 21:41:46;29.5;87;553;43;1011.4
1476807407;2016/10/18 21:46:47;29.5;87;539;41;1011.3
1476807710;2016/10/18 21:51:50;29.5;87;542;37;1011.4
1476808011;2016/10/18 21:56:51;29.5;87;517;40;1011.5
1476808314;2016/10/18 22:01:54;29.5;87;515;39;1011.5
1476808615;2016/10/18 22:06:55;29.5;87;520;40;1011.5
1476808918;2016/10/18 22:11:58;29.5;87;517;42;1011.6
1476809220;2016/10/18 22:17:00;29.4;87;510;41;1011.5
1476809521;2016/10/18 22:22:01;29.4;87;502;42;1011.5
1476809823;2016/10/18 22:27:03;29.4;87;509;43;1011.5
1476810125;2016/10/18 22:32:05;29.4;87;500;41;1011.5
1476810427;2016/10/18 22:37:07;29.4;87;499;39;1011.4
1476810729;2016/10/18 22:42:09;29.4;87;516;41;1011.4
1476811030;2016/10/18 22:47:10;29.3;88;516;45;1011.4
1476811332;2016/10/18 22:52:12;29.4;88;506;46;1011.3
1476811634;2016/10/18 22:57:14;29.3;88;503;45;1011.3
1476811936;2016/10/18 23:02:16;29.4;88;512;50;1011.2
1476812238;2016/10/18 23:07:18;29.3;88;523;46;1011.1
1476812540;2016/10/18 23:12:20;29.4;88;522;43;1011
1476812842;2016/10/18 23:17:22;29.3;88;533;50;1010.9
1476813144;2016/10/18 23:22:24;29.3;88;516;49;1010.8
1476813446;2016/10/18 23:27:26;29.3;88;531;46;1010.8
1476813748;2016/10/18 23:32:28;29.3;88;519;45;1010.7
1476814050;2016/10/18 23:37:30;29.3;88;514;45;1010.6
1476814352;2016/10/18 23:42:32;29.3;88;528;44;1010.5
1476814654;2016/10/18 23:47:34;29.3;88;545;44;1010.4
1476814956;2016/10/18 23:52:36;29.4;88;561;40;1010.5
1476815258;2016/10/18 23:57:38;29.3;88;560;43;1010.4
1476815559;2016/10/19 00:02:39;29.3;88;544;40;1010.3
1476815861;2016/10/19 00:07:41;29.3;88;497;38;1010.2
1476816163;2016/10/19 00:12:43;29.3;88;501;38;1010.1
1476816465;2016/10/19 00:17:45;29.2;88;491;39;1010
1476816767;2016/10/19 00:22:47;29.2;88;486;39;1009.9
1476817069;2016/10/19 00:27:49;29.2;88;485;40;1009.8
1476817371;2016/10/19 00:32:51;29.2;88;481;38;1009.8
1476817673;2016/10/19 00:37:53;29.2;88;487;37;1009.7
1476817975;2016/10/19 00:42:55;29.2;88;492;39;1009.7
1476818278;2016/10/19 00:47:58;29.2;88;480;41;1009.5
1476818581;2016/10/19 00:53:01;29.2;88;479;38;1009.5
1476818883;2016/10/19 00:58:03;29.2;88;479;39;1009.4
1476819185;2016/10/19 01:03:05;29.2;88;472;40;1009.4
1476819487;2016/10/19 01:08:07;29.2;87;476;40;1009.4
1476819788;2016/10/19 01:13:08;29.2;87;477;41;1009.5
1476820090;2016/10/19 01:18:10;29.2;88;485;42;1009.5
1476820392;2016/10/19 01:23:12;29.2;88;484;39;1009.3
1476820694;2016/10/19 01:28:14;29.2;87;488;38;1009.2
1476820996;2016/10/19 01:33:16;29.2;88;467;41;1009.2
1476821298;2016/10/19 01:38:18;29.2;88;485;47;1009.1
1476821502;2016/10/19 01:41:42;29.2;88;497;41;1009
1476821803;2016/10/19 01:46:43;29.3;88;513;48;1009.3
1476822105;2016/10/19 01:51:45;29.2;87;500;44;1009.2
1476822408;2016/10/19 01:56:48;29.2;87;509;46;1009
1476822710;2016/10/19 02:01:50;29.2;87;496;40;1008.9
1476823012;2016/10/19 02:06:52;29.2;87;433;40;1008.9
1476823314;2016/10/19 02:11:54;29.2;87;453;38;1008.8
1476823616;2016/10/19 02:16:56;29.2;87;455;37;1008.8
1476823918;2016/10/19 02:21:58;29.2;87;456;51;1008.6
1476824219;2016/10/19 02:26:59;29.2;87;450;51;1008.6
1476824521;2016/10/19 02:32:01;29.1;88;429;51;1008.6
1476824824;2016/10/19 02:37:04;29.1;88;435;57;1008.6
1476825126;2016/10/19 02:42:06;29.1;88;436;59;1008.5
1476825427;2016/10/19 02:47:07;29.1;89;423;55;1008.5
1476825729;2016/10/19 02:52:09;29;89;408;50;1008.4
1476826030;2016/10/19 02:57:10;29.1;89;402;44;1008.5
1476826331;2016/10/19 03:02:11;29;89;411;41;1008.6
1476826633;2016/10/19 03:07:13;29;89;402;38;1008.5
1476826935;2016/10/19 03:12:15;29;90;399;40;1008.5
1476827238;2016/10/19 03:17:18;29;90;411;39;1008.5
1476827540;2016/10/19 03:22:20;29;90;399;38;1008.5
1476827843;2016/10/19 03:27:23;29;89;401;37;1008.6
1476828145;2016/10/19 03:32:25;28.9;90;398;38;1008.6
1476828446;2016/10/19 03:37:26;28.9;90;399;36;1008.5
1476828748;2016/10/19 03:42:28;28.9;90;411;36;1008.4
1476829050;2016/10/19 03:47:30;28.9;90;405;36;1008.4
1476829352;2016/10/19 03:52:32;28.8;90;416;36;1008.4
1476829654;2016/10/19 03:57:34;28.8;90;422;37;1008.4
1476829956;2016/10/19 04:02:36;28.8;90;413;36;1008.4
1476830259;2016/10/19 04:07:39;28.8;90;408;36;1008.5
1476830561;2016/10/19 04:12:41;28.7;90;415;36;1008.5
1476830863;2016/10/19 04:17:43;28.7;90;407;36;1008.6
1476831165;2016/10/19 04:22:45;28.7;90;405;37;1008.4
1476831466;2016/10/19 04:27:46;28.7;90;410;37;1008.3
1476831768;2016/10/19 04:32:48;28.7;90;408;36;1008.3
1476832070;2016/10/19 04:37:50;28.6;90;417;36;1008.3
1476832372;2016/10/19 04:42:52;28.6;90;419;44;1008.7
1476832675;2016/10/19 04:47:55;28.6;90;424;67;1008.7
1476832976;2016/10/19 04:52:56;28.6;90;435;67;1008.9
1476833279;2016/10/19 04:57:59;28.6;90;433;66;1008.9
1476833580;2016/10/19 05:03:00;28.5;90;421;70;1009.1
1476833882;2016/10/19 05:08:02;28.4;90;419;70;1008.9
1476834184;2016/10/19 05:13:04;28.4;90;425;64;1009.1
1476834486;2016/10/19 05:18:06;28.4;90;418;56;1008.9
1476834789;2016/10/19 05:23:09;28.3;90;416;56;1008.8
1476835092;2016/10/19 05:28:12;28.3;90;413;56;1008.8
1476835394;2016/10/19 05:33:14;28.2;90;414;54;1008.7
1476835697;2016/10/19 05:38:17;28.3;90;409;52;1008.7
1476835998;2016/10/19 05:43:18;28.3;91;403;58;1008.7
1476836299;2016/10/19 05:48:19;28.3;91;404;47;1008.7
1476836601;2016/10/19 05:53:21;28.2;90;407;43;1008.7
1476836903;2016/10/19 05:58:23;28.2;90;403;42;1008.7
1476837205;2016/10/19 06:03:25;28.2;90;407;43;1008.8
1476837507;2016/10/19 06:08:27;28.2;90;401;43;1008.8
1476837809;2016/10/19 06:13:29;28.2;90;404;43;1009
1476838112;2016/10/19 06:18:32;28.2;90;403;41;1009.2
1476838414;2016/10/19 06:23:34;28.2;91;401;41;1009.3
1476838716;2016/10/19 06:28:36;28.2;91;399;39;1009.4
1476839018;2016/10/19 06:33:38;28.2;91;412;39;1009.4
1476839319;2016/10/19 06:38:39;28.2;91;406;40;1009.4
1476839621;2016/10/19 06:43:41;28.2;91;409;39;1009.5
1476839923;2016/10/19 06:48:43;28.2;91;407;40;1009.7
1476840225;2016/10/19 06:53:45;28.2;91;413;39;1009.8
1476840526;2016/10/19 06:58:46;28.3;91;410;40;1009.9
1476840828;2016/10/19 07:03:48;28.2;91;417;39;1009.9
1476841130;2016/10/19 07:08:50;28.2;91;418;39;1010.2
1476841432;2016/10/19 07:13:52;28.2;91;418;39;1010.3
1476841733;2016/10/19 07:18:53;28.2;91;426;38;1010.4
1476842036;2016/10/19 07:23:56;28.2;91;421;41;1010.5
1476842340;2016/10/19 07:29:00;28.2;91;431;41;1010.6
1476842642;2016/10/19 07:34:02;28.3;91;430;42;1010.7
1476842943;2016/10/19 07:39:03;28.3;91;429;40;1010.7
1476843244;2016/10/19 07:44:04;28.3;90;428;40;1010.7
1476843546;2016/10/19 07:49:06;28.3;90;426;39;1010.9
1476843848;2016/10/19 07:54:08;28.3;90;424;40;1011
1476844150;2016/10/19 07:59:10;28.3;90;426;41;1011
1476844452;2016/10/19 08:04:12;28.3;90;427;39;1011
1476844754;2016/10/19 08:09:14;28.3;90;417;41;1011
1476845056;2016/10/19 08:14:16;28.3;90;424;41;1010.9
1476845358;2016/10/19 08:19:18;28.3;90;426;40;1011
1476845660;2016/10/19 08:24:20;28.3;90;422;40;1011
1476845962;2016/10/19 08:29:22;28.3;90;420;40;1011
1476846264;2016/10/19 08:34:24;28.3;90;431;41;1011.1
1476846566;2016/10/19 08:39:26;28.4;90;420;41;1011
1476846868;2016/10/19 08:44:28;28.3;90;424;40;1010.9
1476847171;2016/10/19 08:49:31;28.3;90;427;44;1010.8
1476847473;2016/10/19 08:54:33;28.3;90;436;52;1010.8
1476847775;2016/10/19 08:59:35;28.4;90;425;50;1011
1476848077;2016/10/19 09:04:37;28.3;89;429;42;1010.9
1476848379;2016/10/19 09:09:39;28.3;89;425;45;1010.9
1476848681;2016/10/19 09:14:41;28.3;90;428;42;1011.1
1476848982;2016/10/19 09:19:42;28.4;89;437;42;1011
1476849284;2016/10/19 09:24:44;28.4;89;431;41;1011
1476849586;2016/10/19 09:29:46;28.3;89;432;42;1011
1476849888;2016/10/19 09:34:48;28.3;89;414;43;1010.9
1476850190;2016/10/19 09:39:50;28.3;89;412;45;1010.8
1476850492;2016/10/19 09:44:52;28.3;90;425;42;1010.8
1476850794;2016/10/19 09:49:54;28.3;90;420;44;1010.8
1476851096;2016/10/19 09:54:56;28.3;90;414;44;1010.8
1476851398;2016/10/19 09:59:58;28.3;90;430;46;1010.7
1476851700;2016/10/19 10:05:00;28.3;90;421;43;1010.7
1476852002;2016/10/19 10:10:02;28.4;90;426;45;1010.7
1476852304;2016/10/19 10:15:04;28.4;90;429;44;1010.6
1476852606;2016/10/19 10:20:06;28.4;90;444;44;1010.5
1476852908;2016/10/19 10:25:08;28.4;90;427;44;1010.5
1476853209;2016/10/19 10:30:09;28.5;90;434;43;1010.4
1476853511;2016/10/19 10:35:11;28.5;90;439;40;1010.3
1476853813;2016/10/19 10:40:13;28.5;90;429;43;1010.3
1476854115;2016/10/19 10:45:15;28.5;90;425;42;1010.3
1476854418;2016/10/19 10:50:18;28.5;90;421;41;1010.3
1476854720;2016/10/19 10:55:20;28.5;90;418;42;1010.2
1476855022;2016/10/19 11:00:22;28.6;90;420;42;1010.1
1476855324;2016/10/19 11:05:24;28.6;90;409;43;1010.1
1476855627;2016/10/19 11:10:27;28.6;90;416;41;1010.1
1476855929;2016/10/19 11:15:29;28.6;90;423;45;1010
1476856231;2016/10/19 11:20:31;28.6;90;419;50;1010
1476856533;2016/10/19 11:25:33;28.6;90;417;43;1010
1476856836;2016/10/19 11:30:36;28.7;90;418;42;1009.9
1476857138;2016/10/19 11:35:38;28.7;90;420;40;1009.9
1476857440;2016/10/19 11:40:40;28.7;90;415;43;1009.8
1476857742;2016/10/19 11:45:42;28.7;90;418;42;1009.7
1476858044;2016/10/19 11:50:44;28.7;90;425;42;1009.6
1476858346;2016/10/19 11:55:46;28.7;90;430;43;1009.4
1476858648;2016/10/19 12:00:48;28.7;90;432;43;1009.4
1476858950;2016/10/19 12:05:50;28.7;90;429;45;1009.3
1476859253;2016/10/19 12:10:53;28.8;90;439;43;1009.2
1476859555;2016/10/19 12:15:55;28.7;90;418;44;1009.2
1476859857;2016/10/19 12:20:57;28.8;90;420;52;1009.1
1476860159;2016/10/19 12:25:59;28.8;90;420;45;1009
1476860463;2016/10/19 12:31:03;28.8;90;423;45;1008.9
1476860766;2016/10/19 12:36:06;28.8;90;412;49;1008.8
1476861068;2016/10/19 12:41:08;28.8;90;415;48;1008.7
1476861370;2016/10/19 12:46:10;28.8;90;412;46;1008.7
1476861670;2016/10/19 12:51:10;28.8;90;414;46;1008.6
1476861972;2016/10/19 12:56:12;28.8;90;413;49;1008.5
1476862276;2016/10/19 13:01:16;28.8;90;418;46;1008.4
1476862526;2016/10/19 13:05:26;28.8;90;407;46;1008.3
1476862826;2016/10/19 13:10:26;28.9;90;418;51;1008.2
1476863128;2016/10/19 13:15:28;28.9;89;418;50;1008.1
1476863430;2016/10/19 13:20:30;28.8;89;423;49;1008.1
1476863732;2016/10/19 13:25:32;28.9;89;426;46;1008
1476864034;2016/10/19 13:30:34;28.8;89;406;47;1007.9
1476864337;2016/10/19 13:35:37;28.9;89;423;48;1007.7
1476864639;2016/10/19 13:40:39;28.8;89;413;45;1007.7
1476864942;2016/10/19 13:45:42;28.9;89;458;47;1007.6
1476865244;2016/10/19 13:50:44;28.9;90;480;48;1007.5
1476865547;2016/10/19 13:55:47;28.9;89;496;49;1007.4
1476865848;2016/10/19 14:00:48;28.9;89;481;47;1007.4
1476866152;2016/10/19 14:05:52;29;89;474;51;1007.4
1476866454;2016/10/19 14:10:54;28.9;89;476;46;1007.4
1476866757;2016/10/19 14:15:57;29;89;483;46;1007.4
1476867059;2016/10/19 14:20:59;29;89;467;46;1007.5
1476867361;2016/10/19 14:26:01;29;89;458;44;1007.4
1476867663;2016/10/19 14:31:03;29;89;450;42;1007.4
1476867965;2016/10/19 14:36:05;29;89;436;44;1007.4
1476868267;2016/10/19 14:41:07;29;89;418;43;1007.3
1476868569;2016/10/19 14:46:09;29;89;419;48;1007.3
1476868870;2016/10/19 14:51:10;29;89;404;43;1007.2
1476869173;2016/10/19 14:56:13;29;89;416;43;1007.1
1476869475;2016/10/19 15:01:15;29;89;411;45;1007.1
1476869777;2016/10/19 15:06:17;29;89;405;43;1007
1476870079;2016/10/19 15:11:19;29;88;409;44;1007
1476870381;2016/10/19 15:16:21;29;89;410;43;1006.9
1476870683;2016/10/19 15:21:23;29;89;408;43;1006.9
1476870985;2016/10/19 15:26:25;29;89;413;45;1006.9
1476871287;2016/10/19 15:31:27;29;89;410;47;1007
1476871588;2016/10/19 15:36:28;29;89;410;43;1007
1476871890;2016/10/19 15:41:30;29;89;419;43;1007.1
1476872193;2016/10/19 15:46:33;29;89;414;45;1007.2
1476872495;2016/10/19 15:51:35;29;89;408;46;1007.2
1476872797;2016/10/19 15:56:37;29;89;419;47;1007.3
1476873099;2016/10/19 16:01:39;28.9;89;440;45;1007.3
1476873401;2016/10/19 16:06:41;28.9;89;415;46;1007.3
1476873703;2016/10/19 16:11:43;28.8;89;415;45;1007.4
1476874006;2016/10/19 16:16:46;28.8;89;413;46;1007.4
1476874307;2016/10/19 16:21:47;28.8;89;420;48;1007.4
1476874610;2016/10/19 16:26:50;28.8;89;438;46;1007.4
1476874911;2016/10/19 16:31:51;28.8;89;449;46;1007.4
1476875214;2016/10/19 16:36:54;28.8;89;439;46;1007.3
1476875515;2016/10/19 16:41:55;28.8;89;449;46;1007.3
1476875818;2016/10/19 16:46:58;28.8;89;441;50;1007.3
1476876120;2016/10/19 16:52:00;28.8;89;435;47;1007.3
1476876421;2016/10/19 16:57:01;28.8;89;429;46;1007.3
1476876723;2016/10/19 17:02:03;28.8;89;437;46;1007.3
1476877025;2016/10/19 17:07:05;28.8;89;430;46;1007.3
1476877327;2016/10/19 17:12:07;28.7;89;415;46;1007.3
1476877629;2016/10/19 17:17:09;28.7;89;406;46;1007.3
1476877931;2016/10/19 17:22:11;28.7;89;404;46;1007.3
1476878233;2016/10/19 17:27:13;28.7;89;409;46;1007.4
1476878535;2016/10/19 17:32:15;28.7;89;404;46;1007.5
1476878838;2016/10/19 17:37:18;28.7;89;402;46;1007.6
1476879140;2016/10/19 17:42:20;28.7;89;416;46;1007.7
1476879441;2016/10/19 17:47:21;28.7;89;414;46;1007.8
1476879743;2016/10/19 17:52:23;28.7;89;421;46;1007.9
1476880045;2016/10/19 17:57:25;28.7;89;421;42;1007.9
1476880348;2016/10/19 18:02:28;28.7;89;427;43;1008.1
1476880651;2016/10/19 18:07:31;28.8;88;414;40;1008.2
1476880953;2016/10/19 18:12:33;28.8;88;430;40;1008.3
1476881254;2016/10/19 18:17:34;28.8;88;417;41;1008.4
1476881556;2016/10/19 18:22:36;28.8;88;421;41;1008.5
1476881858;2016/10/19 18:27:38;28.8;88;425;46;1008.7
1476882160;2016/10/19 18:32:40;28.8;88;430;49;1008.8
1476882462;2016/10/19 18:37:42;28.8;88;429;46;1008.9
1476882764;2016/10/19 18:42:44;28.8;88;425;44;1009
1476883066;2016/10/19 18:47:46;28.8;88;434;41;1009
1476883368;2016/10/19 18:52:48;28.8;88;435;42;1009
1476883672;2016/10/19 18:57:52;28.8;88;430;41;1009.1
1476883974;2016/10/19 19:02:54;28.7;88;432;40;1009.2
1476884276;2016/10/19 19:07:56;28.8;88;429;39;1009.3
1476884578;2016/10/19 19:12:58;28.7;88;427;40;1009.4
1476884879;2016/10/19 19:17:59;28.7;88;425;39;1009.4
1476885181;2016/10/19 19:23:01;28.7;88;420;38;1009.3
1476885484;2016/10/19 19:28:04;28.7;88;422;38;1009.5
1476885786;2016/10/19 19:33:06;28.7;88;418;41;1009.6
1476886089;2016/10/19 19:38:09;28.7;88;416;39;1009.7
1476886391;2016/10/19 19:43:11;28.7;89;414;41;1009.7
1476886691;2016/10/19 19:48:11;28.7;88;425;40;1009.8
1476886993;2016/10/19 19:53:13;28.7;88;424;39;1009.9
1476887295;2016/10/19 19:58:15;28.7;88;419;38;1010
1476887597;2016/10/19 20:03:17;28.7;89;420;38;1010.1
1476887900;2016/10/19 20:08:20;28.7;89;417;38;1010
1476888202;2016/10/19 20:13:22;28.6;89;404;38;1010
1476888505;2016/10/19 20:18:25;28.6;89;402;39;1010
1476888807;2016/10/19 20:23:27;28.6;89;402;38;1010
1476889109;2016/10/19 20:28:29;28.6;89;410;38;1010.2
1476889411;2016/10/19 20:33:31;28.6;89;410;39;1010.2
1476889713;2016/10/19 20:38:33;28.6;89;408;39;1010.2
1476890015;2016/10/19 20:43:35;28.6;89;411;39;1010.3
1476890317;2016/10/19 20:48:37;28.6;89;408;47;1010.4
1476890619;2016/10/19 20:53:39;28.6;89;407;47;1010.4
1476890922;2016/10/19 20:58:42;28.6;89;411;45;1010.4
1476891224;2016/10/19 21:03:44;28.5;89;407;47;1010.4
1476891525;2016/10/19 21:08:45;28.5;89;411;45;1010.4
1476891827;2016/10/19 21:13:47;28.5;89;411;44;1010.5
1476892130;2016/10/19 21:18:50;28.5;89;420;44;1010.6
1476892432;2016/10/19 21:23:52;28.5;89;433;45;1010.5
1476892734;2016/10/19 21:28:54;28.5;89;443;44;1010.5
1476893036;2016/10/19 21:33:56;28.5;89;462;45;1010.5
1476893339;2016/10/19 21:38:59;28.5;89;459;47;1010.5
1476893641;2016/10/19 21:44:01;28.5;89;455;46;1010.5
1476893944;2016/10/19 21:49:04;28.5;89;448;46;1010.6
1476894246;2016/10/19 21:54:06;28.5;89;443;47;1010.6
1476894548;2016/10/19 21:59:08;28.5;89;448;45;1010.6
1476894850;2016/10/19 22:04:10;28.5;89;433;46;1010.6
1476895152;2016/10/19 22:09:12;28.5;89;444;45;1010.5
1476895454;2016/10/19 22:14:14;28.5;89;449;43;1010.5
1476895756;2016/10/19 22:19:16;28.5;89;441;44;1010.3
1476896058;2016/10/19 22:24:18;28.4;89;426;48;1010.3
1476896361;2016/10/19 22:29:21;28.5;89;438;48;1010.2
1476896663;2016/10/19 22:34:23;28.4;90;440;46;1010.1
1476896965;2016/10/19 22:39:25;28.5;90;435;42;1010
1476897267;2016/10/19 22:44:27;28.4;90;442;45;1009.9
1476897569;2016/10/19 22:49:29;28.4;90;435;43;1009.9
1476897871;2016/10/19 22:54:31;28.4;90;431;41;1009.8
1476898174;2016/10/19 22:59:34;28.4;90;433;46;1009.8
1476898476;2016/10/19 23:04:36;28.4;90;438;45;1009.7
1476898778;2016/10/19 23:09:38;28.4;90;433;41;1009.6
1476899081;2016/10/19 23:14:41;28.4;90;434;45;1009.5
1476899384;2016/10/19 23:19:44;28.4;90;433;45;1009.5
1476899686;2016/10/19 23:24:46;28.4;90;431;44;1009.5
1476899988;2016/10/19 23:29:48;28.4;90;437;46;1009.3
1476900290;2016/10/19 23:34:50;28.4;90;431;45;1009.2
1476900592;2016/10/19 23:39:52;28.4;90;436;44;1009.1
1476900894;2016/10/19 23:44:54;28.4;90;430;45;1009
1476901196;2016/10/19 23:49:56;28.4;90;434;48;1009
1476901498;2016/10/19 23:54:58;28.4;90;426;49;1008.9
1476901801;2016/10/20 00:00:01;28.4;90;435;46;1008.9
1476902103;2016/10/20 00:05:03;28.4;90;428;45;1008.8
1476902407;2016/10/20 00:10:07;28.4;90;433;50;1008.8
1476902709;2016/10/20 00:15:09;28.3;90;435;50;1008.8
1476903010;2016/10/20 00:20:10;28.3;90;439;51;1008.7
1476903312;2016/10/20 00:25:12;28.3;90;438;49;1008.6
1476903615;2016/10/20 00:30:15;28.3;90;441;45;1008.5
1476903917;2016/10/20 00:35:17;28.3;90;438;49;1008.5
1476904220;2016/10/20 00:40:20;28.3;90;439;50;1008.5
1476904522;2016/10/20 00:45:22;28.3;90;446;44;1008.5
1476904823;2016/10/20 00:50:23;28.3;90;436;48;1008.4
1476905125;2016/10/20 00:55:25;28.2;90;445;47;1008.4
1476905428;2016/10/20 01:00:28;28.2;90;436;46;1008.4
1476905731;2016/10/20 01:05:31;28.2;90;440;49;1008.3
1476906033;2016/10/20 01:10:33;28.2;90;435;48;1008.1
1476906335;2016/10/20 01:15:35;28.2;90;446;48;1008.1
1476906638;2016/10/20 01:20:38;28.2;90;441;46;1008
1476906940;2016/10/20 01:25:40;28.2;90;438;51;1008
1476907244;2016/10/20 01:30:44;28.2;90;439;46;1008
1476907546;2016/10/20 01:35:46;28.2;90;434;46;1007.9
1476907848;2016/10/20 01:40:48;28.2;90;441;44;1007.9
1476908150;2016/10/20 01:45:50;28.2;90;434;44;1007.8
1476908451;2016/10/20 01:50:51;28.2;90;434;42;1007.8
1476908753;2016/10/20 01:55:53;28.1;90;424;42;1007.7
1476909056;2016/10/20 02:00:56;28.1;90;420;48;1007.7
1476909358;2016/10/20 02:05:58;28.1;90;434;47;1007.7
1476909659;2016/10/20 02:10:59;28.1;90;423;40;1007.6
1476909961;2016/10/20 02:16:01;28.1;90;423;39;1007.6
1476910265;2016/10/20 02:21:05;28.2;90;430;39;1007.6
1476910567;2016/10/20 02:26:07;28.1;90;433;41;1007.6
1476910869;2016/10/20 02:31:09;28.2;90;425;43;1007.6
1476911171;2016/10/20 02:36:11;28.1;90;430;38;1007.7
1476911474;2016/10/20 02:41:14;28.1;90;427;38;1007.7
1476911776;2016/10/20 02:46:16;28.1;90;425;38;1007.6
1476912077;2016/10/20 02:51:17;28.1;90;429;39;1007.6
1476912379;2016/10/20 02:56:19;28.1;90;425;37;1007.5
1476912682;2016/10/20 03:01:22;28.1;90;427;37;1007.5
1476912984;2016/10/20 03:06:24;28.1;90;425;40;1007.5
1476913286;2016/10/20 03:11:26;28.1;90;429;38;1007.6
1476913588;2016/10/20 03:16:28;28.1;90;415;40;1007.5
1476913891;2016/10/20 03:21:31;28.1;90;426;40;1007.5
1476914193;2016/10/20 03:26:33;28.1;90;422;37;1007.5
1476914495;2016/10/20 03:31:35;28.1;90;430;36;1007.5
1476914797;2016/10/20 03:36:37;28.1;90;426;37;1007.4
1476915099;2016/10/20 03:41:39;28.1;90;431;37;1007.4
1476915401;2016/10/20 03:46:41;28.1;90;431;37;1007.4
1476915704;2016/10/20 03:51:44;28.1;90;434;37;1007.4
1476916006;2016/10/20 03:56:46;28;90;434;38;1007.4
1476916308;2016/10/20 04:01:48;28.1;90;437;38;1007.4
1476916610;2016/10/20 04:06:50;28;90;437;38;1007.5
1476916912;2016/10/20 04:11:52;28;90;439;38;1007.5
1476917214;2016/10/20 04:16:54;28;90;445;39;1007.5
1476917517;2016/10/20 04:21:57;28;90;439;38;1007.6
1476917819;2016/10/20 04:26:59;28;90;443;39;1007.6
1476918121;2016/10/20 04:32:01;28;90;454;37;1007.6
1476918423;2016/10/20 04:37:03;28;90;460;37;1007.7
1476918726;2016/10/20 04:42:06;28.1;90;478;36;1007.7
1476919028;2016/10/20 04:47:08;28.1;90;480;37;1007.8
1476919330;2016/10/20 04:52:10;28.1;90;480;37;1007.8
1476919632;2016/10/20 04:57:12;28.1;90;469;37;1007.8
1476919934;2016/10/20 05:02:14;28.1;90;482;37;1007.8
1476920236;2016/10/20 05:07:16;28.1;90;476;37;1007.8
1476920539;2016/10/20 05:12:19;28.1;90;473;38;1007.9
1476920841;2016/10/20 05:17:21;28.1;90;486;38;1008
1476921143;2016/10/20 05:22:23;28.1;90;486;39;1008
1476921445;2016/10/20 05:27:25;28.1;90;484;38;1008
1476921747;2016/10/20 05:32:27;28.1;90;478;37;1008
1476922049;2016/10/20 05:37:29;28.1;90;470;37;1008.1
1476922351;2016/10/20 05:42:31;28.1;90;472;37;1008.2
1476922654;2016/10/20 05:47:34;28.1;90;458;37;1008.3
1476922956;2016/10/20 05:52:36;28.1;90;477;38;1008.3
1476923258;2016/10/20 05:57:38;28.1;90;479;38;1008.3
1476923560;2016/10/20 06:02:40;28.1;90;474;37;1008.3
1476923862;2016/10/20 06:07:42;28;90;478;39;1008.3
1476924164;2016/10/20 06:12:44;28.1;90;481;39;1008.4
1476924466;2016/10/20 06:17:46;28;90;480;39;1008.4
1476924768;2016/10/20 06:22:48;28.1;90;487;38;1008.4
1476925070;2016/10/20 06:27:50;28.1;90;500;39;1008.5
1476925373;2016/10/20 06:32:53;28.1;90;503;38;1008.5
1476925675;2016/10/20 06:37:55;28.1;90;514;39;1008.6
1476925977;2016/10/20 06:42:57;28.1;90;535;38;1008.7
1476926279;2016/10/20 06:47:59;28.1;90;500;39;1008.7
1476926581;2016/10/20 06:53:01;28.1;90;499;38;1008.8
1476926884;2016/10/20 06:58:04;28.1;90;494;39;1008.9
1476927186;2016/10/20 07:03:06;28.1;90;498;40;1008.9
1476927488;2016/10/20 07:08:08;28.1;90;506;40;1009
1476927791;2016/10/20 07:13:11;28.1;90;488;38;1009
1476928093;2016/10/20 07:18:13;28.1;90;473;39;1009.2
1476928395;2016/10/20 07:23:15;28.1;90;484;39;1009.3
1476928697;2016/10/20 07:28:17;28.1;90;487;41;1009.4
1476928999;2016/10/20 07:33:19;28.1;90;463;41;1009.4
1476929301;2016/10/20 07:38:21;28.1;90;463;41;1009.5
1476929603;2016/10/20 07:43:23;28.1;90;461;41;1009.5
1476929905;2016/10/20 07:48:25;28.1;90;441;41;1009.6
1476930208;2016/10/20 07:53:28;28.1;90;443;41;1009.7
1476930510;2016/10/20 07:58:30;28.1;90;444;39;1009.8
1476930813;2016/10/20 08:03:33;28.1;90;446;41;1009.8
1476931115;2016/10/20 08:08:35;28.1;90;444;41;1009.9
1476931417;2016/10/20 08:13:37;28.2;90;439;40;1009.9
1476931719;2016/10/20 08:18:39;28.1;90;431;41;1010
1476932021;2016/10/20 08:23:41;28.2;90;448;41;1010.1
1476932323;2016/10/20 08:28:43;28.2;90;455;44;1010.1
1476932625;2016/10/20 08:33:45;28.2;90;464;42;1010.2
1476932927;2016/10/20 08:38:47;28.2;90;507;41;1010.2
1476933229;2016/10/20 08:43:49;28.3;90;536;41;1010.2
1476933532;2016/10/20 08:48:52;28.3;90;509;42;1010.2
1476933834;2016/10/20 08:53:54;28.3;90;513;42;1010.2